Weather History for Big Piney, WY

Change the Weather History Date:

Sunday, April 29, 2012

  Actual Average Record
Temperature  
Mean Temperature 39 °F 41 °F  
Max Temperature 53 °F 56 °F 77 °F (2007)
Min Temperature 27 °F 25 °F 11 °F (1991)
Degree Days  
Heating Degree Days 26 24  
Month to date heating degree days 812  
Since 1 July heating degree days 9507  
Cooling Degree Days 0 0  
Month to date cooling degree days 0  
Year to date cooling degree days 0  
Moisture  
Dew Point 23 °F    
Average Humidity 63    
Maximum Humidity 93    
Minimum Humidity 32    
Precipitation  
Precipitation 0.00 in 0.03 in 0.84 in (1999)
Month to date precipitation 0.51  
Year to date precipitation 1.61  
Sea Level Pressure  
Sea Level Pressure 30.03 in    
Wind  
Wind Speed 5 mph (NNE)    
Max Wind Speed 14 mph    
Max Gust Speed 22 mph    
Visibility 8 miles    
Events Rain , Snow    
T = Trace of Precipitation, MM = Missing Value Source: NWS Daily Summary

Daily Weather History Graph

Daily Weather History Graph

Search for Another Location

Airport:

Trip Planner

Search our weather history database for the weather conditions in past years. The results will help you decide how hot, cold, wet, or windy it might be!

Date:

Astronomy

Apr. 29, 2012 Rise Set
Actual Time 6:17 AM MDT 8:18 PM MDT
Civil Twilight 5:46 AM MDT 8:49 PM MDT
Nautical Twilight 5:09 AM MDT 9:27 PM MDT
Astronomical Twilight 4:28 AM MDT 10:08 PM MDT
Moon 1:05 PM MDT (4/29) 2:19 AM MDT (4/29)
Length of Visible Light 15h 03m
Length of Day
14h 01m
First Quarter, 54% of the Moon is Illuminated
Apr 29
First Quarter
May 5
Full
May 12
Last Quarter
May 20
New
May 28
First Quarter

Hourly Weather History & Observations

Time (MDT) Temp. Windchill Dew Point Humidity Pressure Visibility Wind Dir Wind Speed Gust Speed Precip Events Conditions
12:53 AM 30.9 °F 24.3 °F 17.1 °F 57% 30.01 in 10.0 mi North 6.9 mph - N/A   Overcast
1:53 AM 28.0 °F 21.7 °F 17.1 °F 63% 30.01 in 10.0 mi NNW 5.8 mph - N/A   Overcast
2:53 AM 28.0 °F 19.3 °F 17.1 °F 63% 29.98 in 10.0 mi NNW 9.2 mph - N/A   Overcast
3:53 AM 28.9 °F 21.1 °F 18.0 °F 64% 29.96 in 10.0 mi North 8.1 mph - N/A   Overcast
4:53 AM 30.0 °F - 19.9 °F 66% 29.97 in 10.0 mi Calm Calm - N/A   Overcast
5:17 AM 30.2 °F - 21.2 °F 69% 30.05 in 2.5 mi Calm Calm - 0.00 in Snow Light Snow
5:40 AM 28.4 °F - 23.0 °F 80% 30.05 in 3.0 mi Calm Calm - 0.00 in Snow Light Snow
5:53 AM 28.4 °F 24.6 °F 23.0 °F 80% 30.05 in 8.0 mi ESE 3.5 mph - N/A Snow Light Snow
6:26 AM 28.4 °F - 24.8 °F 86% 30.05 in 1.8 mi Calm Calm - 0.00 in Snow Light Snow
6:53 AM 28.9 °F 23.9 °F 26.1 °F 89% 30.02 in 1.8 mi East 4.6 mph - 0.00 in Snow Light Snow
6:58 AM 28.4 °F 23.3 °F 26.6 °F 93% 30.06 in 3.0 mi East 4.6 mph - 0.00 in Snow Light Snow
7:14 AM 28.4 °F 23.3 °F 26.6 °F 93% 30.06 in 2.5 mi ENE 4.6 mph - 0.00 in Snow Light Snow
7:22 AM 30.2 °F 25.4 °F 26.6 °F 86% 30.06 in 8.0 mi ENE 4.6 mph - 0.00 in   Overcast
7:53 AM 30.0 °F 26.5 °F 26.1 °F 85% 30.03 in 5.0 mi East 3.5 mph - 0.00 in Snow Light Snow
8:53 AM 32.0 °F - 25.0 °F 75% 30.04 in 10.0 mi Calm Calm - 0.00 in   Overcast
9:53 AM 37.0 °F - 27.0 °F 67% 30.03 in 10.0 mi Calm Calm - N/A   Overcast
10:53 AM 42.8 °F - 24.8 °F 49% 30.08 in 10.0 mi Calm Calm - N/A   Overcast
11:53 AM 37.9 °F - 26.1 °F 62% 30.04 in 3.0 mi Calm Calm - 0.00 in Snow Light Snow
12:53 PM 42.1 °F 36.6 °F 25.0 °F 51% 30.01 in 10.0 mi ENE 9.2 mph - 0.00 in   Overcast
1:53 PM 43.0 °F 39.5 °F 25.0 °F 49% 30.03 in 10.0 mi East 5.8 mph - N/A   Overcast
2:53 PM 46.9 °F - 21.9 °F 37% 30.00 in 10.0 mi NNW 9.2 mph - N/A   Overcast
3:53 PM 51.1 °F - 21.9 °F 32% 29.97 in 10.0 mi NNW 12.7 mph 21.9 mph 0.00 in Rain Light Rain
4:53 PM 50.0 °F - 21.9 °F 33% 29.97 in 10.0 mi NNW 11.5 mph - 0.00 in   Scattered Clouds
5:53 PM 50.0 °F - 21.9 °F 33% 29.98 in 10.0 mi NW 13.8 mph 17.3 mph N/A   Clear
6:53 PM 48.9 °F - 21.9 °F 35% 30.00 in 10.0 mi NW 9.2 mph 17.3 mph N/A   Clear
7:53 PM 45.0 °F 41.2 °F 23.0 °F 42% 30.03 in 10.0 mi NW 6.9 mph - N/A   Clear
8:53 PM 35.1 °F 28.6 °F 21.0 °F 57% 30.07 in 10.0 mi NNW 8.1 mph - N/A   Clear
9:53 PM 35.1 °F 31.0 °F 21.9 °F 59% 30.06 in 10.0 mi East 4.6 mph - N/A   Clear
10:53 PM 27.0 °F 21.6 °F 19.0 °F 72% 30.08 in 10.0 mi NNW 4.6 mph - N/A   Clear
11:53 PM 27.0 °F 17.3 °F 19.9 °F 75% 30.09 in 10.0 mi NNW 10.4 mph - N/A   Clear